When you browse on this site, cookies collect data to enhance your experience and personalize the content and advertising you see.
Visit our Privacy Policy to learn more. By continuing to use the site, you agree to this use of cookies and data.
  • en Suisse
  • Liste des pays
  • À 7 jours
  • Température de l'eau
  • Carte satellitaire
  • Carte météo
  • Widgets météo
  • user-avatar
    Se connecter

    Météo par heure à Tomashivka

    Ce jour, 26 Avril, Vendredi

    Heure Température Précipitation Vent Pression Humidité
    00:00 +11°C° 0 mm 3 m/s 752 mmHg 65%
    01:00 +10°C° 0 mm 3 m/s 752 mmHg 66%
    02:00 +10°C° 0 mm 3 m/s 752 mmHg 67%
    03:00 +10°C° 0 mm 3 m/s 752 mmHg 70%
    04:00 +9°C° 0 mm 3 m/s 751 mmHg 72%
    05:00 +9°C° 0 mm 3 m/s 751 mmHg 74%
    06:00 +10°C° 0 mm 3 m/s 751 mmHg 70%
    07:00 +12°C° 0 mm 3 m/s 751 mmHg 66%
    08:00 +14°C° 0 mm 4 m/s 751 mmHg 61%
    09:00 +15°C° 0 mm 4 m/s 751 mmHg 56%
    10:00 +18°C° 0 mm 4 m/s 751 mmHg 51%
    11:00 +19°C° 0 mm 5 m/s 750 mmHg 46%
    12:00 +20°C° 0 mm 5 m/s 750 mmHg 47%
    13:00 +20°C° 0 mm 5 m/s 750 mmHg 48%
    14:00 +21°C° 0 mm 5 m/s 749 mmHg 48%
    15:00 +20°C° 0 mm 5 m/s 749 mmHg 52%
    16:00 +19°C° 0 mm 5 m/s 749 mmHg 55%
    17:00 +19°C° 0 mm 5 m/s 748 mmHg 59%
    18:00 +17°C° 0 mm 4 m/s 748 mmHg 63%
    19:00 +15°C° 0 mm 4 m/s 748 mmHg 67%
    20:00 +14°C° 0 mm 4 m/s 748 mmHg 72%
    21:00 +13°C° 0 mm 4 m/s 748 mmHg 72%
    22:00 +13°C° 0 mm 4 m/s 748 mmHg 71%
    23:00 +13°C° 0 mm 4 m/s 748 mmHg 71%

    Demain, 27 Avril, Samedi

    Heure Température Précipitation Vent Pression Humidité
    00:00 +13°C° 0 mm 4 m/s 748 mmHg 70%
    01:00 +12°C° 0 mm 4 m/s 747 mmHg 68%
    02:00 +12°C° 0 mm 4 m/s 747 mmHg 67%
    03:00 +12°C° 0 mm 4 m/s 747 mmHg 66%
    04:00 +11°C° 0 mm 4 m/s 746 mmHg 65%
    05:00 +11°C° 0 mm 4 m/s 746 mmHg 63%
    06:00 +12°C° 0 mm 5 m/s 746 mmHg 63%
    07:00 +13°C° 0 mm 5 m/s 746 mmHg 62%
    08:00 +14°C° 0 mm 5 m/s 746 mmHg 62%
    09:00 +15°C° 0.1 mm 5 m/s 746 mmHg 63%
    10:00 +16°C° 0.1 mm 5 m/s 746 mmHg 63%
    11:00 +16°C° 0.1 mm 6 m/s 745 mmHg 64%
    12:00 +17°C° 0 mm 5 m/s 745 mmHg 63%
    13:00 +19°C° 0 mm 5 m/s 745 mmHg 61%
    14:00 +20°C° 0 mm 5 m/s 744 mmHg 60%
    15:00 +21°C° 0 mm 5 m/s 744 mmHg 60%
    16:00 +21°C° 0 mm 4 m/s 744 mmHg 60%
    17:00 +22°C° 0 mm 4 m/s 743 mmHg 60%
    18:00 +20°C° 0 mm 4 m/s 743 mmHg 65%
    19:00 +19°C° 0 mm 4 m/s 743 mmHg 70%
    20:00 +17°C° 0 mm 4 m/s 743 mmHg 74%
    21:00 +17°C° 1 mm 4 m/s 743 mmHg 76%
    22:00 +16°C° 1 mm 3 m/s 743 mmHg 77%
    23:00 +14°C° 1 mm 3 m/s 743 mmHg 78%

    Après-demain, 28 Avril, Dimanche

    Heure Température Précipitation Vent Pression Humidité
    00:00 +14°C° 0.1 mm 3 m/s 743 mmHg 79%
    01:00 +13°C° 0.1 mm 3 m/s 743 mmHg 79%
    02:00 +13°C° 0.1 mm 3 m/s 743 mmHg 79%
    03:00 +12°C° 0 mm 3 m/s 742 mmHg 79%
    04:00 +12°C° 0 mm 3 m/s 742 mmHg 79%
    05:00 +11°C° 0 mm 3 m/s 742 mmHg 78%
    06:00 +13°C° 0 mm 3 m/s 742 mmHg 74%
    07:00 +14°C° 0 mm 3 m/s 742 mmHg 69%
    08:00 +16°C° 0 mm 3 m/s 742 mmHg 64%
    09:00 +18°C° 0 mm 3 m/s 742 mmHg 59%
    10:00 +20°C° 0 mm 3 m/s 742 mmHg 54%
    11:00 +22°C° 0 mm 3 m/s 742 mmHg 49%
    12:00 +22°C° 0 mm 3 m/s 742 mmHg 46%
    13:00 +24°C° 0 mm 3 m/s 742 mmHg 44%
    14:00 +25°C° 0 mm 3 m/s 742 mmHg 41%
    15:00 +25°C° 0 mm 3 m/s 742 mmHg 42%
    16:00 +25°C° 0 mm 2 m/s 742 mmHg 44%
    17:00 +24°C° 0 mm 2 m/s 741 mmHg 45%
    18:00 +21°C° 0 mm 2 m/s 741 mmHg 51%
    19:00 +19°C° 0 mm 2 m/s 742 mmHg 58%
    20:00 +18°C° 0 mm 1 m/s 742 mmHg 64%
    21:00 +17°C° 0 mm 2 m/s 742 mmHg 68%
    22:00 +16°C° 0 mm 2 m/s 742 mmHg 71%
    23:00 +15°C° 0 mm 2 m/s 742 mmHg 75%

    29 Avril, Lundi

    Heure Température Précipitation Vent Pression Humidité
    00:00 +15°C° 0 mm 2 m/s 742 mmHg 78%
    01:00 +14°C° 0 mm 2 m/s 742 mmHg 81%
    02:00 +14°C° 0 mm 2 m/s 742 mmHg 84%
    03:00 +13°C° 0 mm 3 m/s 742 mmHg 86%
    04:00 +13°C° 0 mm 3 m/s 742 mmHg 89%
    05:00 +12°C° 0 mm 3 m/s 743 mmHg 92%
    06:00 +13°C° 0 mm 4 m/s 743 mmHg 89%
    07:00 +14°C° 0 mm 5 m/s 743 mmHg 86%
    08:00 +15°C° 0 mm 6 m/s 743 mmHg 83%
    09:00 +14°C° 0 mm 6 m/s 743 mmHg 83%
    10:00 +14°C° 0 mm 6 m/s 744 mmHg 83%
    11:00 +12°C° 0 mm 7 m/s 744 mmHg 83%
    12:00 +11°C° 0 mm 7 m/s 744 mmHg 82%
    13:00 +10°C° 0 mm 7 m/s 744 mmHg 82%
    14:00 +9°C° 0 mm 7 m/s 744 mmHg 82%
    15:00 +9°C° 0 mm 7 m/s 743 mmHg 80%
    16:00 +9°C° 0 mm 7 m/s 743 mmHg 78%
    17:00 +10°C° 0 mm 7 m/s 743 mmHg 77%
    18:00 +9°C° 0 mm 6 m/s 743 mmHg 78%
    19:00 +9°C° 0 mm 6 m/s 743 mmHg 79%
    20:00 +9°C° 0 mm 6 m/s 743 mmHg 81%
    21:00 +8°C° 0 mm 6 m/s 743 mmHg 79%
    22:00 +8°C° 0 mm 6 m/s 743 mmHg 78%
    23:00 +8°C° 0 mm 6 m/s 743 mmHg 76%

    30 Avril, Mardi

    Heure Température Précipitation Vent Pression Humidité
    00:00 +8°C° 0.1 mm 6 m/s 743 mmHg 78%
    01:00 +8°C° 0.1 mm 5 m/s 742 mmHg 79%
    02:00 +7°C° 0.1 mm 5 m/s 742 mmHg 80%
    03:00 +7°C° 0.1 mm 5 m/s 742 mmHg 82%
    04:00 +7°C° 0.1 mm 5 m/s 742 mmHg 83%
    05:00 +7°C° 0.1 mm 4 m/s 742 mmHg 85%
    06:00 +7°C° 0.1 mm 4 m/s 741 mmHg 85%
    07:00 +7°C° 0.1 mm 4 m/s 741 mmHg 86%
    08:00 +7°C° 0.1 mm 4 m/s 741 mmHg 86%
    09:00 +7°C° 0.1 mm 5 m/s 741 mmHg 86%
    10:00 +8°C° 0.1 mm 5 m/s 741 mmHg 85%
    11:00 +8°C° 0.1 mm 5 m/s 741 mmHg 84%
    12:00 +8°C° 0.1 mm 5 m/s 741 mmHg 85%
    13:00 +8°C° 0.1 mm 5 m/s 741 mmHg 85%
    14:00 +8°C° 0.1 mm 5 m/s 741 mmHg 85%
    15:00 +8°C° 0.1 mm 5 m/s 740 mmHg 85%
    16:00 +8°C° 0.1 mm 5 m/s 740 mmHg 85%
    17:00 +8°C° 0.1 mm 5 m/s 740 mmHg 85%
    18:00 +7°C° 0.1 mm 5 m/s 740 mmHg 87%
    19:00 +7°C° 0.1 mm 4 m/s 740 mmHg 88%
    20:00 +6°C° 0.1 mm 4 m/s 740 mmHg 90%
    21:00 +6°C° 0.1 mm 4 m/s 740 mmHg 91%
    22:00 +5°C° 0.1 mm 4 m/s 740 mmHg 91%
    23:00 +5°C° 0.1 mm 4 m/s 740 mmHg 92%

    1 Mai, Mercredi

    Heure Température Précipitation Vent Pression Humidité
    00:00 +5°C° 0 mm 4 m/s 740 mmHg 92%
    01:00 +4°C° 0 mm 4 m/s 740 mmHg 92%
    02:00 +4°C° 0 mm 4 m/s 740 mmHg 93%
    03:00 +3°C° 0 mm 4 m/s 740 mmHg 93%
    04:00 +3°C° 0 mm 4 m/s 740 mmHg 94%
    05:00 +1°C° 0 mm 4 m/s 740 mmHg 94%
    06:00 +3°C° 0 mm 5 m/s 740 mmHg 85%
    07:00 +6°C° 0 mm 5 m/s 740 mmHg 76%
    08:00 +8°C° 0 mm 6 m/s 741 mmHg 67%
    09:00 +9°C° 0 mm 6 m/s 741 mmHg 61%
    10:00 +10°C° 0 mm 6 m/s 741 mmHg 55%
    11:00 +13°C° 0 mm 6 m/s 741 mmHg 50%
    12:00 +11°C° 0.1 mm 6 m/s 741 mmHg 50%
    13:00 +11°C° 0.1 mm 6 m/s 741 mmHg 49%
    14:00 +12°C° 0.1 mm 5 m/s 741 mmHg 49%
    15:00 +12°C° 0.1 mm 5 m/s 741 mmHg 49%
    16:00 +12°C° 0.1 mm 5 m/s 741 mmHg 49%
    17:00 +12°C° 0.1 mm 5 m/s 741 mmHg 49%
    18:00 +11°C° 0 mm 4 m/s 741 mmHg 54%
    19:00 +9°C° 0 mm 3 m/s 741 mmHg 58%
    20:00 +8°C° 0 mm 2 m/s 742 mmHg 62%
    21:00 +8°C° 0 mm 2 m/s 742 mmHg 61%
    22:00 +8°C° 0 mm 2 m/s 742 mmHg 60%
    23:00 +8°C° 0 mm 2 m/s 742 mmHg 58%
    Voir plus